Somerset, KY

5:28 AM EST on January 22, 2017 (GMT -0500)
Somerset-Pulaski County-Wilson

Weather History for KSME - March, 2014

Change the Weather History Date:

Monday, March 10, 2014

  Actual Average Record
Temperature  
Mean Temperature 47 °F -  
Max Temperature 64 °F 55 °F 80 °F (2009)
Min Temperature 30 °F 32 °F 19 °F (2001)
Degree Days  
Heating Degree Days 18    
Moisture  
Dew Point 34 °F    
Average Humidity 68    
Maximum Humidity 100    
Minimum Humidity 34    
Precipitation  
Precipitation 0.00 in - - ()
Sea Level Pressure  
Sea Level Pressure 29.99 in    
Wind  
Wind Speed 3 mph (SW)    
Max Wind Speed 14 mph    
Max Gust Speed 21 mph    
Visibility 10 miles    
Events      
Averages and records for this station are not official NWS values.
T = Trace of Precipitation, MM = Missing Value Source: NWS Daily Summary

Daily Weather History Graph

Daily Weather History Graph

Search for Another Location

Airport or City:

Trip Planner

Search our weather history database for the weather conditions in past years. The results will help you decide how hot, cold, wet, or windy it might be!

Date:

Astronomy

Mar. 10, 2014 Rise Set
Actual Time 7:56 AM EDT 7:41 PM EDT
Civil Twilight 7:30 AM EDT 8:07 PM EDT
Nautical Twilight 7:00 AM EDT 8:37 PM EDT
Astronomical Twilight 6:30 AM EDT 9:07 PM EDT
Moon 2:29 PM EDT (3/10) 4:02 AM EDT (3/10)
Length of Visible Light 12h 36m
Length of Day
11h 44m
Waxing Gibbous, 70% of the Moon is Illuminated
Mar 10
Waxing Gibbous
Mar 16
Full
Mar 23
Last Quarter
Mar 30
New
Apr 7
First Quarter

Hourly Weather History & Observations

Time (EDT) Temp. Windchill Dew Point Humidity Pressure Visibility Wind Dir Wind Speed Gust Speed Precip Events Conditions
12:10 AM 35.6 °F - 30.2 °F 81% 30.11 in 10.0 mi Calm Calm - N/A   Clear
12:35 AM 33.8 °F - 30.2 °F 87% 30.11 in 10.0 mi Calm Calm - N/A   Clear
12:55 AM 33.8 °F - 30.2 °F 87% 30.11 in 10.0 mi Calm Calm - N/A   Clear
1:15 AM 33.8 °F - 32.0 °F 93% 30.10 in 10.0 mi Calm Calm - N/A   Clear
1:35 AM 33.8 °F - 32.0 °F 93% 30.10 in 10.0 mi Calm Calm - N/A   Clear
1:55 AM 32.0 °F - 32.0 °F 100% 30.09 in 7.0 mi Calm Calm - N/A   Clear
2:15 AM 32.0 °F - 32.0 °F 100% 30.09 in 10.0 mi Calm Calm - N/A   Clear
2:35 AM 32.0 °F - 32.0 °F 100% 30.10 in 10.0 mi Calm Calm - N/A   Clear
2:55 AM 32.0 °F - 30.2 °F 93% 30.09 in 10.0 mi Calm Calm - N/A   Clear
3:15 AM 32.0 °F - 30.2 °F 93% 30.09 in 10.0 mi Calm Calm - N/A   Clear
3:35 AM 32.0 °F - 32.0 °F 100% 30.08 in 10.0 mi Calm Calm - N/A   Clear
3:55 AM 32.0 °F - 30.2 °F 93% 30.08 in 10.0 mi Calm Calm - N/A   Clear
4:15 AM 32.0 °F - 30.2 °F 93% 30.08 in 10.0 mi Calm Calm - N/A   Clear
4:35 AM 32.0 °F - 30.2 °F 93% 30.08 in 7.0 mi Calm Calm - N/A   Clear
4:50 AM 32.0 °F - 30.2 °F 93% 30.08 in 7.0 mi Calm Calm - N/A   Clear
5:15 AM 30.2 °F - 30.2 °F 100% 30.08 in 7.0 mi Calm Calm - N/A   Clear
5:35 AM 30.2 °F - 30.2 °F 100% 30.07 in 7.0 mi Calm Calm - N/A   Clear
5:55 AM 30.2 °F - 30.2 °F 100% 30.08 in 7.0 mi Calm Calm - N/A   Clear
6:15 AM 30.2 °F - 30.2 °F 100% 30.07 in 7.0 mi Calm Calm - N/A   Clear
6:35 AM 32.0 °F - 32.0 °F 100% 30.08 in 10.0 mi Calm Calm - N/A   Clear
6:55 AM 32.0 °F - 32.0 °F 100% 30.07 in 10.0 mi Calm Calm - N/A   Clear
7:15 AM 32.0 °F - 32.0 °F 100% 30.07 in 10.0 mi Calm Calm - N/A   Clear
7:35 AM 32.0 °F - 32.0 °F 100% 30.07 in 10.0 mi Calm Calm - N/A   Clear
7:55 AM 32.0 °F - 30.2 °F 93% 30.06 in 10.0 mi Calm Calm - N/A   Clear
8:15 AM 32.0 °F - 28.4 °F 87% 30.06 in 10.0 mi Calm Calm - N/A   Clear
8:35 AM 33.8 °F - 30.2 °F 87% 30.06 in 10.0 mi Calm Calm - N/A   Scattered Clouds
8:55 AM 32.0 °F - 28.4 °F 87% 30.07 in 10.0 mi Calm Calm - N/A   Scattered Clouds
9:15 AM 33.8 °F - 30.2 °F 87% 30.07 in 10.0 mi Calm Calm - N/A   Scattered Clouds
9:30 AM 35.6 °F - 32.0 °F 87% 30.07 in 10.0 mi Calm Calm - N/A   Mostly Cloudy
9:55 AM 41.0 °F 39.0 °F 33.8 °F 76% 30.07 in 10.0 mi South 3.5 mph - N/A   Overcast
10:15 AM 42.8 °F 41.1 °F 35.6 °F 76% 30.07 in 10.0 mi SSW 3.5 mph - N/A   Overcast
10:35 AM 42.8 °F 41.1 °F 37.4 °F 81% 30.06 in 7.0 mi South 3.5 mph - N/A   Overcast
10:55 AM 46.4 °F 44.3 °F 39.2 °F 76% 30.05 in 10.0 mi SSW 4.6 mph - N/A   Overcast
11:15 AM 50.0 °F - 41.0 °F 71% 30.05 in 10.0 mi WSW 6.9 mph - N/A   Overcast
11:35 AM 50.0 °F - 41.0 °F 71% 30.05 in 10.0 mi WSW 11.5 mph - N/A   Overcast
11:55 AM 50.0 °F - 41.0 °F 71% 30.05 in 10.0 mi WSW 12.7 mph - N/A   Overcast
12:15 PM 51.8 °F - 41.0 °F 67% 30.05 in 10.0 mi WSW 11.5 mph - N/A   Overcast
12:35 PM 51.8 °F - 41.0 °F 67% 30.03 in 10.0 mi SW 6.9 mph 10.4 mph N/A   Overcast
12:55 PM 53.6 °F - 41.0 °F 62% 30.03 in 10.0 mi WSW 10.4 mph - N/A   Mostly Cloudy
1:15 PM 55.4 °F - 41.0 °F 58% 30.02 in 10.0 mi SW 11.5 mph 16.1 mph N/A   Mostly Cloudy
1:35 PM 57.2 °F - 41.0 °F 55% 30.01 in 10.0 mi West 9.2 mph - N/A   Scattered Clouds
1:55 PM 59.0 °F - 41.0 °F 51% 30.00 in 10.0 mi West 13.8 mph 20.7 mph N/A   Scattered Clouds
2:10 PM 59.0 °F - 41.0 °F 51% 29.98 in 10.0 mi West 13.8 mph - N/A   Scattered Clouds
2:35 PM 59.0 °F - 39.2 °F 48% 29.97 in 10.0 mi West 12.7 mph 18.4 mph N/A   Clear
2:55 PM 60.8 °F - 39.2 °F 45% 29.95 in 10.0 mi WSW 11.5 mph 18.4 mph N/A   Clear
3:15 PM 60.8 °F - 37.4 °F 42% 29.93 in 10.0 mi WSW 11.5 mph - N/A   Clear
3:35 PM 62.6 °F - 37.4 °F 39% 29.92 in 10.0 mi WSW 11.5 mph 16.1 mph N/A   Clear
3:55 PM 62.6 °F - 35.6 °F 37% 29.92 in 10.0 mi West 11.5 mph 16.1 mph N/A   Clear
4:15 PM 62.6 °F - 35.6 °F 37% 29.92 in 10.0 mi West 10.4 mph 17.3 mph N/A   Clear
4:35 PM 62.6 °F - 35.6 °F 37% 29.91 in 10.0 mi WSW 10.4 mph - N/A   Clear
4:55 PM 64.4 °F - 35.6 °F 34% 29.91 in 10.0 mi WSW 12.7 mph - N/A   Clear
5:15 PM 64.4 °F - 35.6 °F 34% 29.90 in 10.0 mi WSW 13.8 mph 19.6 mph N/A   Clear
5:35 PM 64.4 °F - 35.6 °F 34% 29.89 in 10.0 mi WSW 10.4 mph - N/A   Clear
5:55 PM 64.4 °F - 35.6 °F 34% 29.88 in 10.0 mi WSW 11.5 mph 17.3 mph N/A   Clear
6:15 PM 64.4 °F - 35.6 °F 34% 29.88 in 10.0 mi WSW 8.1 mph - N/A   Clear
6:35 PM 64.4 °F - 35.6 °F 34% 29.87 in 10.0 mi SW 9.2 mph - N/A   Clear
6:55 PM 62.6 °F - 33.8 °F 34% 29.87 in 10.0 mi SW 5.8 mph - N/A   Clear
7:15 PM 62.6 °F - 33.8 °F 34% 29.87 in 10.0 mi WSW 8.1 mph - N/A   Clear
7:35 PM 59.0 °F - 33.8 °F 39% 29.86 in 10.0 mi WSW 8.1 mph - N/A   Clear
7:55 PM 59.0 °F - 33.8 °F 39% 29.87 in 10.0 mi WSW 6.9 mph - N/A   Clear
8:15 PM 59.0 °F - 32.0 °F 36% 29.86 in 10.0 mi SW 3.5 mph - N/A   Clear
8:35 PM 57.2 °F - 32.0 °F 38% 29.87 in 10.0 mi Calm Calm - N/A   Clear
8:55 PM 55.4 °F - 33.8 °F 44% 29.87 in 10.0 mi SW 3.5 mph - N/A   Clear
9:15 PM 55.4 °F - 32.0 °F 41% 29.87 in 10.0 mi SSW 3.5 mph - N/A   Clear
9:35 PM 53.6 °F - 32.0 °F 44% 29.87 in 10.0 mi SW 4.6 mph - N/A   Clear
9:55 PM 53.6 °F - 32.0 °F 44% 29.87 in 10.0 mi SW 4.6 mph - N/A   Clear
10:15 PM 53.6 °F - 32.0 °F 44% 29.87 in 10.0 mi SW 3.5 mph - N/A   Clear
10:35 PM 51.8 °F - 33.8 °F 50% 29.87 in 10.0 mi Calm Calm - N/A   Clear
10:55 PM 50.0 °F - 33.8 °F 54% 29.87 in 10.0 mi South 3.5 mph - N/A   Clear
11:15 PM 48.2 °F - 33.8 °F 58% 29.86 in 10.0 mi Calm Calm - N/A   Clear
11:35 PM 48.2 °F - 33.8 °F 58% 29.86 in 10.0 mi SW 3.5 mph - N/A   Clear
11:55 PM 46.4 °F 45.2 °F 33.8 °F 62% 29.86 in 10.0 mi SSW 3.5 mph - N/A   Clear